Probability
19 29 45 55 52 65 61 74 55 35 35 13 3 6 0 0 0 0 32 52 48 68 61 61 77 74 77 74 74 61 68 71 77 74 61 55 52 48 42 45 48 48 42
13 19 23 32 39 55 55 58 42 39 42 23 13 10 6 0 0 3 6 45 48 68 74 55 65 77 77 74 74 71 71 65 68 74 71 61 48 39 32 39 42 42 42
6 13 26 26 16 32 35 52 32 45 42 26 13 3 3 3 0 0 0 19 32 42 84 71 74 77 81 74 77 74 71 65 71 65 58 45 39 39 35 35 29 32 29
0 3 16 19 19 29 42 48 55 52 48 45 26 16 3 10 3 0 0 3 23 10 32 90 87 87 81 77 71 68 71 68 71 61 52 42 45 42 29 19 23 26 23
0 3 13 19 19 39 32 16 29 39 32 45 29 26 6 6 13 3 0 3 0 13 6 45 77 87 87 81 74 61 77 65 65 55 52 48 39 42 32 19 16 19 19
6 13 16 16 23 39 42 32 23 35 42 42 6 6 16 13 16 10 3 6 3 0 3 6 32 26 84 81 74 71 68 68 65 61 48 45 45 35 29 23 19 19 23
6 13 23 19 32 35 39 19 29 29 39 26 16 19 16 3 3 19 6 6 0 6 0 0 29 35 55 52 65 81 74 68 61 61 52 45 45 35 32 26 23 19 19
6 6 16 19 29 39 35 39 32 32 32 29 19 16 6 10 10 0 6 10 3 13 3 0 0 23 26 42 10 55 71 74 68 58 61 58 52 48 32 35 19 19 19
6 10 10 10 16 26 35 35 35 32 35 26 26 23 6 0 13 3 0 10 19 16 10 0 0 6 6 35 45 0 23 52 58 55 55 58 45 45 39 35 19 16 19
10 10 10 10 13 19 29 32 26 26 32 29 29 13 3 10 13 10 3 3 6 10 6 0 3 6 6 10 42 10 0 0 48 45 45 55 52 45 39 35 26 16 16
6 3 6 6 16 19 13 19 19 23 35 29 29 13 6 6 0 6 6 10 19 19 10 13 10 19 23 23 58 23 0 0 3 52 42 32 45 45 39 35 26 26 19
10 3 6 10 10 10 13 10 19 23 35 29 29 19 16 3 0 3 3 6 10 16 0 13 19 26 29 23 13 0 0 0 0 19 39 39 29 39 29 26 26 23 26
6 0 3 10 6 6 10 6 19 19 19 23 23 23 19 19 6 6 6 6 6 6 10 19 19 32 16 26 26 0 0 0 0 0 3 19 19 26 26 19 23 19 19
0 0 0 3 3 10 6 13 19 16 10 13 6 13 29 26 19 10 3 10 3 3 10 6 16 16 19 23 10 0 0 0 0 0 0 0 0 0 19 23 16 19 16
0 0 0 0 6 0 0 13 23 13 10 10 10 13 13 13 16 19 6 3 3 3 3 0 10 13 19 26 0 0 0 0 0 0 0 0 0 0 0 0 6 6 10
3 3 0 0 3 6 0 6 10 16 13 10 10 3 6 0 10 13 13 10 6 3 3 3 6 6 10 0 0 0 0 0 0 0 0 0 0 0 0 0 0 0 0
3 3 3 3 3 3 3 6 3 6 6 6 0 0 0 3 6 3 6 10 10 10 10 3 3 0 0 0 0 6 0 0 0 0 0 0 0 0 0 0 0 0 0
3 3 3 3 3 3 6 0 0 3 0 0 0 0 0 0 3 0 3 3 3 0 3 0 0 0 0 0 0 0 0 0 0 0 0 0 0 0 0 0 0 0 0
0 0 0 3 3 3 10 10 10 6 3 3 3 3 0 0 3 3 0 0 0 0 3 6 0 0 0 0 0 0 0 6 0 0 0 0 0 0 0 0 0 0 0
0 0 0 0 3 0 3 6 6 6 6 0 0 0 3 0 3 3 0 0 0 0 0 3 0 0 3 0 0 0 0 0 0 0 0 0 0 0 0 0 0 0 0
0 0 0 0 0 0 0 0 3 0 0 0 0 0 0 0 0 0 0 0 0 3 0 0 0 0 0 0 0 0 0 0 3 0 0 0 0 0 0 0 0 0 0
0 0 0 0 0 0 0 0 0 3 0 0 0 0 0 0 0 0 0 0 0 0 0 0 0 0 0 0 0 0 0 0 0 0 0 0 0 0 0 0 0 0 0
0 0 0 0 0 0 0 0 0 0 0 0 0 3 0 0 0 0 3 0 0 0 0 0 0 0 0 0 0 0 3 6 3 0 0 0 0 0 0 0 0 0 0
0 0 0 0 0 0 0 0 0 0 0 3 6 6 6 3 0 0 0 0 0 0 0 0 0 0 0 0 0 0 6 6 3 0 0 0 0 0 0 0 0 0 0
0 0 0 0 0 0 0 0 0 0 0 0 0 0 0 0 0 0 0 0 0 0 0 0 0 0 0 0 0 0 3 6 0 0 0 0 0 0 0 0 0 0 0
0 0 0 0 0 0 0 0 0 0 0 0 0 0 0 0 0 0 0 0 0 0 0 0 0 0 0 0 0 0 3 3 0 0 0 0 0 0 0 0 0 0 0
Height
5854 5855 5857 5858 5860 5862 5864 5867 5869 5871 5873 5875 5877 5879 5881 5883 5884 5885 5887 5888 5889 5890 5891 5892 5893 5893 5894 5895 5895 5896 5897 5898 5898 5899 5899 5900 5901 5902 5903 5904 5906 5907 5908
5845 5847 5849 5851 5853 5856 5858 5861 5863 5865 5867 5869 5872 5874 5876 5878 5880 5882 5884 5885 5887 5888 5889 5890 5891 5892 5893 5894 5894 5895 5896 5897 5898 5898 5899 5900 5901 5902 5902 5904 5905 5906 5907
5836 5839 5841 5843 5846 5848 5851 5854 5856 5859 5861 5863 5866 5869 5871 5874 5876 5878 5880 5882 5883 5885 5886 5888 5889 5890 5891 5892 5893 5894 5895 5896 5897 5898 5898 5899 5900 5901 5902 5903 5903 5904 5905
5827 5829 5832 5835 5837 5840 5844 5847 5850 5852 5855 5857 5860 5863 5866 5868 5871 5873 5875 5877 5879 5881 5883 5885 5886 5888 5889 5890 5891 5892 5893 5894 5895 5896 5897 5898 5899 5900 5900 5901 5902 5902 5903
5818 5820 5823 5826 5829 5832 5835 5839 5843 5845 5848 5851 5853 5856 5860 5863 5865 5868 5871 5873 5875 5877 5879 5881 5883 5885 5886 5888 5889 5890 5891 5892 5894 5894 5895 5896 5897 5898 5899 5899 5900 5901 5901
5809 5811 5814 5817 5820 5823 5827 5830 5835 5838 5841 5844 5847 5850 5853 5856 5859 5862 5865 5868 5870 5872 5875 5877 5879 5881 5883 5884 5886 5888 5889 5890 5891 5892 5893 5894 5895 5896 5897 5897 5898 5898 5899
5800 5802 5805 5808 5811 5814 5818 5822 5826 5830 5833 5837 5840 5843 5847 5849 5853 5856 5859 5862 5864 5867 5870 5872 5875 5877 5879 5881 5882 5884 5886 5887 5888 5890 5891 5892 5893 5894 5894 5895 5896 5896 5896
5792 5794 5796 5799 5802 5805 5809 5813 5817 5821 5825 5829 5832 5836 5839 5843 5846 5849 5852 5855 5858 5861 5864 5867 5869 5872 5874 5876 5878 5880 5882 5884 5885 5886 5888 5889 5890 5890 5891 5892 5892 5893 5893
5785 5786 5788 5790 5793 5796 5800 5804 5808 5812 5817 5820 5824 5828 5832 5835 5838 5842 5845 5848 5851 5855 5858 5861 5864 5866 5869 5871 5873 5876 5878 5879 5881 5882 5884 5885 5886 5887 5888 5888 5889 5889 5890
5778 5779 5781 5782 5785 5787 5791 5795 5799 5803 5808 5812 5816 5820 5823 5826 5830 5834 5838 5841 5844 5848 5851 5854 5857 5860 5863 5866 5868 5870 5872 5874 5876 5878 5879 5881 5882 5883 5884 5884 5885 5886 5886
5773 5773 5774 5775 5777 5779 5782 5786 5790 5794 5799 5803 5807 5811 5815 5818 5822 5826 5830 5833 5837 5840 5844 5847 5850 5854 5857 5859 5862 5865 5867 5869 5871 5872 5874 5876 5877 5878 5879 5880 5880 5881 5881
5768 5768 5768 5769 5771 5772 5775 5778 5781 5785 5790 5795 5799 5803 5807 5811 5814 5818 5822 5825 5828 5832 5836 5840 5843 5847 5850 5853 5856 5858 5861 5863 5865 5867 5868 5870 5871 5873 5874 5875 5875 5876 5876
5763 5763 5763 5763 5764 5766 5768 5770 5774 5777 5782 5786 5791 5795 5799 5803 5807 5811 5814 5817 5821 5824 5828 5832 5836 5839 5843 5846 5849 5852 5854 5856 5859 5861 5863 5864 5866 5867 5868 5869 5870 5870 5871
5760 5759 5758 5759 5759 5760 5762 5764 5767 5770 5774 5778 5782 5787 5791 5795 5799 5802 5806 5810 5813 5817 5821 5824 5828 5832 5835 5838 5842 5845 5847 5850 5852 5854 5856 5858 5859 5861 5862 5863 5864 5864 5865
5758 5756 5755 5755 5755 5756 5757 5759 5761 5764 5768 5771 5775 5779 5783 5787 5791 5795 5798 5802 5805 5809 5813 5817 5820 5823 5827 5830 5834 5837 5840 5842 5845 5847 5849 5851 5852 5854 5855 5856 5857 5858 5858
5756 5754 5752 5752 5751 5751 5752 5754 5756 5758 5761 5765 5769 5773 5776 5780 5783 5787 5791 5794 5797 5801 5805 5809 5812 5815 5819 5822 5826 5829 5832 5834 5837 5839 5841 5843 5845 5846 5848 5849 5850 5850 5851
5755 5753 5750 5749 5748 5748 5749 5750 5752 5754 5756 5759 5762 5766 5769 5773 5776 5780 5783 5786 5790 5793 5797 5800 5804 5807 5810 5814 5817 5820 5823 5826 5829 5831 5833 5835 5837 5838 5840 5841 5842 5843 5844
5755 5751 5749 5747 5746 5745 5746 5747 5748 5750 5752 5754 5756 5759 5763 5766 5769 5773 5775 5779 5782 5786 5789 5792 5796 5799 5803 5806 5809 5812 5815 5817 5820 5823 5825 5827 5829 5830 5832 5833 5835 5835 5836
5755 5751 5748 5746 5744 5744 5744 5744 5745 5746 5748 5749 5751 5754 5757 5760 5763 5766 5768 5771 5774 5778 5781 5785 5788 5791 5795 5798 5801 5804 5806 5809 5812 5814 5817 5819 5821 5823 5824 5825 5826 5827 5828
5757 5753 5749 5746 5744 5743 5743 5743 5743 5744 5744 5745 5747 5749 5751 5754 5757 5759 5762 5764 5767 5770 5774 5777 5780 5783 5786 5789 5792 5795 5798 5801 5804 5806 5808 5810 5812 5814 5816 5817 5819 5819 5820
5759 5754 5750 5747 5745 5744 5743 5742 5742 5742 5742 5742 5743 5745 5747 5749 5751 5753 5755 5758 5760 5763 5766 5769 5772 5775 5778 5782 5785 5787 5790 5793 5796 5798 5800 5803 5805 5807 5808 5809 5810 5811 5812
5761 5757 5752 5749 5746 5744 5743 5742 5741 5740 5740 5740 5741 5741 5743 5744 5746 5747 5749 5751 5754 5757 5760 5762 5765 5769 5771 5774 5777 5780 5783 5786 5789 5791 5793 5795 5797 5799 5800 5802 5802 5803 5804
5764 5759 5755 5751 5748 5745 5744 5742 5741 5739 5739 5738 5738 5739 5739 5740 5741 5743 5744 5746 5748 5751 5754 5757 5759 5762 5765 5767 5770 5773 5776 5779 5781 5784 5786 5788 5790 5791 5793 5794 5795 5795 5796
5767 5762 5758 5754 5750 5748 5745 5743 5741 5740 5738 5737 5737 5736 5737 5737 5738 5739 5740 5742 5743 5746 5748 5751 5753 5755 5758 5761 5764 5767 5769 5771 5774 5776 5779 5781 5783 5784 5786 5787 5788 5789 5789
5770 5765 5761 5757 5754 5750 5747 5745 5742 5740 5738 5737 5736 5735 5735 5735 5736 5736 5737 5738 5739 5741 5743 5745 5748 5750 5752 5755 5758 5760 5763 5766 5768 5770 5773 5775 5777 5778 5779 5780 5781 5782 5783
5773 5768 5764 5760 5756 5753 5750 5747 5744 5741 5739 5737 5736 5734 5734 5734 5734 5735 5735 5735 5736 5738 5739 5741 5743 5746 5748 5750 5753 5755 5758 5760 5762 5765 5767 5769 5770 5772 5773 5774 5775 5776 5777
Wind_Speed
34 34 31 30 30 29 27 25 26 25 24 23 22 21 20 18 17 15 14 13 11 10 10 9 8 7 7 6 6 6 6 5 6 6 6 7 8 8 9 9 10 10 11
38 36 36 34 33 32 30 28 27 26 25 25 25 24 23 21 20 18 17 15 14 13 12 11 10 9 9 8 7 7 7 7 7 7 6 7 7 7 8 9 10 10 10
39 38 38 37 36 34 32 31 31 28 28 27 27 26 25 24 23 21 19 18 17 15 14 13 12 12 11 10 9 9 8 8 8 8 8 7 8 8 8 9 9 10 11
39 40 39 39 37 36 34 33 32 30 30 29 29 28 27 27 26 24 23 21 20 18 17 16 14 14 13 12 11 11 10 10 10 9 9 9 9 9 9 9 10 10 11
38 39 39 40 39 38 37 36 35 33 32 31 30 30 30 29 28 27 26 24 23 21 20 18 17 16 15 14 14 13 12 12 11 11 11 10 10 10 10 10 10 11 12
35 37 38 39 40 39 39 37 37 36 35 34 32 32 32 31 30 30 28 27 26 25 23 22 20 19 18 17 16 15 15 14 13 13 13 12 12 12 12 12 12 12 12
33 35 36 37 38 38 39 39 38 37 37 36 35 33 33 34 33 32 30 29 28 27 26 25 24 22 21 20 19 18 17 16 16 15 15 14 14 14 13 13 13 13 13
30 32 35 36 37 38 39 39 40 40 39 38 37 36 35 34 34 34 33 32 31 30 29 27 26 25 24 23 22 21 20 19 18 18 17 17 16 16 15 15 15 15 15
27 29 31 34 37 38 39 40 41 41 41 40 39 37 37 36 35 35 35 34 33 32 31 30 29 27 26 25 24 24 22 21 21 20 20 19 19 18 18 17 17 17 17
21 24 27 30 33 35 38 40 41 42 42 41 41 40 39 37 36 35 35 36 35 34 33 32 31 30 29 27 26 26 25 24 23 23 22 22 21 20 20 20 20 19 19
18 20 23 26 29 31 34 37 39 41 41 42 41 41 40 38 36 38 36 36 36 36 36 35 34 32 31 30 29 28 27 26 26 25 24 24 23 22 22 22 21 21 21
15 17 19 22 24 27 30 33 36 39 40 40 39 40 41 40 37 38 37 36 36 36 36 36 35 33 32 31 30 29 29 29 28 27 26 26 25 24 24 24 23 23 23
12 13 16 18 21 24 26 28 32 35 37 37 38 39 39 40 39 37 37 37 37 37 37 36 35 34 33 32 31 31 31 30 30 29 28 27 27 26 26 25 25 25 25
9 10 12 15 17 20 22 24 27 30 33 35 35 36 37 37 38 37 37 37 37 38 37 37 37 36 36 35 34 33 32 32 31 30 30 30 29 28 28 27 27 27 27
9 9 9 11 13 16 19 21 24 27 29 32 33 34 34 35 35 35 36 36 37 38 38 38 37 37 37 37 35 34 34 33 33 33 32 32 31 31 30 30 30 29 29
11 9 9 9 11 13 15 17 20 23 26 29 31 32 32 33 34 35 34 35 35 36 37 37 36 36 37 37 37 36 35 35 35 35 34 33 32 32 32 31 31 30 30
12 10 9 8 8 10 12 14 16 18 21 24 27 29 30 31 32 33 34 34 34 35 36 37 36 35 36 36 36 37 37 36 36 35 34 33 33 32 32 31 31 31 31
15 13 10 8 6 6 8 10 13 15 17 20 23 25 28 29 31 31 33 34 34 35 35 35 36 36 36 36 35 36 36 37 37 36 35 34 33 32 32 33 32 32 32
17 15 12 9 6 4 5 7 10 12 14 16 19 22 24 26 27 29 30 32 33 33 34 33 34 35 36 35 35 35 36 36 35 35 35 34 34 33 33 33 33 33 32
20 18 14 11 7 4 3 4 7 8 10 12 15 18 21 23 24 26 29 31 32 33 33 33 33 33 35 36 36 36 35 34 34 34 34 34 34 33 33 33 33 32 31
21 19 17 13 10 7 4 3 4 6 7 9 12 15 17 19 21 23 25 28 29 31 31 31 32 32 33 33 33 33 34 34 34 34 33 32 32 32 32 32 32 31 31
23 22 19 16 12 9 7 5 3 3 5 7 9 12 14 16 17 19 21 24 26 28 29 29 30 30 30 30 31 31 31 32 32 31 32 32 31 31 31 31 31 31 31
23 23 22 18 15 11 9 7 5 3 3 4 6 8 11 13 15 16 17 20 22 24 25 26 26 27 28 28 28 29 29 30 29 28 29 30 30 30 30 30 29 29 29
23 23 22 20 17 14 12 9 7 5 3 3 4 6 8 10 11 14 15 17 19 21 24 25 24 25 27 27 26 27 28 28 29 28 28 28 28 27 27 28 27 26 26
23 22 22 21 19 17 14 12 10 8 6 4 2 3 6 8 9 10 12 14 16 18 21 21 20 21 24 24 24 25 26 27 27 27 27 26 26 26 26 26 25 24 23
22 21 21 20 19 17 16 14 11 10 8 6 3 1 2 4 5 7 9 11 13 14 17 18 18 18 19 21 21 22 23 24 25 25 25 25 24 24 24 24 23 22 21
Wind_Direction
256 254 254 252 249 245 243 241 237 235 236 235 233 233 233 233 231 229 227 226 225 224 222 218 214 209 201 197 196 194 191 186 183 186 190 193 194 198 200 204 211 216 221
257 255 254 253 251 247 243 242 239 236 235 234 233 234 233 232 232 230 228 227 226 226 224 223 221 217 213 208 205 202 201 197 193 191 192 198 201 202 207 212 219 224 229
256 254 252 251 250 248 244 241 238 237 236 235 235 236 234 231 231 230 228 228 228 228 227 226 224 222 220 217 213 209 207 206 204 203 204 209 212 212 216 220 226 230 234
254 252 251 250 248 246 244 241 238 237 237 237 237 236 235 233 231 230 230 231 229 229 229 228 227 225 224 222 219 216 213 212 212 212 212 214 218 220 224 227 232 234 238
253 252 251 250 247 244 242 240 239 236 236 237 237 235 235 233 230 230 230 231 230 230 230 231 230 228 226 226 225 223 221 220 220 220 220 222 225 228 230 234 238 240 242
253 252 250 249 247 244 243 241 239 237 236 237 237 236 235 233 232 231 231 232 231 231 231 232 232 231 229 228 228 228 227 225 226 227 228 229 232 235 238 240 244 246 247
253 251 249 248 246 245 244 242 238 237 237 236 235 235 236 235 233 232 232 232 232 231 231 232 232 233 232 231 230 230 230 230 231 232 233 235 238 241 243 244 245 247 249
253 251 249 247 246 245 243 242 240 238 237 236 234 235 236 235 234 234 233 232 233 233 233 233 233 234 234 233 232 232 233 233 234 236 237 239 241 243 245 247 248 250 252
255 251 249 247 246 245 242 240 239 238 237 236 235 236 236 235 234 235 234 233 233 233 233 233 234 234 234 234 234 234 235 236 237 238 239 241 243 245 246 248 251 254 256
258 253 250 248 246 245 243 240 238 237 236 236 235 235 235 235 234 234 234 233 233 234 233 233 234 235 234 235 235 236 237 238 240 241 241 243 244 246 248 250 252 255 257
261 257 253 249 247 244 243 240 237 235 235 235 236 236 236 235 235 234 234 233 233 234 234 233 234 234 234 235 236 237 238 240 241 242 243 244 245 247 249 251 252 255 257
269 263 256 251 248 245 243 240 237 235 234 234 235 236 236 236 236 234 233 234 233 233 233 232 232 232 234 235 237 239 240 242 243 244 244 246 247 249 250 251 253 255 257
282 270 260 253 249 245 242 239 237 235 234 234 235 235 236 237 238 237 235 235 235 234 233 232 232 233 234 236 238 240 241 242 243 243 245 247 248 249 250 252 253 255 257
304 286 269 257 250 246 243 239 237 235 235 234 234 234 236 237 238 239 239 238 235 234 233 234 235 234 236 238 240 241 241 242 242 243 246 248 249 249 250 253 255 256 258
326 307 286 266 256 249 244 240 237 235 235 235 235 235 237 238 239 239 240 240 237 236 236 235 235 236 237 240 241 241 242 242 244 244 246 249 249 250 252 254 256 258 259
343 327 305 282 264 254 246 242 239 236 235 235 235 236 237 237 238 238 238 238 238 237 237 236 237 239 239 240 240 241 243 244 244 245 247 250 251 251 252 254 255 257 258
358 348 332 310 281 260 248 243 238 235 235 235 235 235 236 236 237 237 237 238 238 237 238 239 240 241 240 239 240 242 244 245 244 245 247 248 250 251 251 254 256 258 261
5 0 350 332 305 277 257 246 240 237 237 237 236 236 235 236 237 237 238 240 240 239 239 240 241 241 241 240 241 243 244 245 244 245 246 248 250 252 253 255 258 259 261
14 9 2 354 339 307 271 251 243 239 237 237 235 234 234 235 236 237 239 240 239 238 239 241 241 241 240 241 242 243 244 244 244 244 246 248 251 254 255 257 258 260 261
21 19 16 14 8 350 307 264 248 243 240 237 233 231 231 233 236 238 239 240 241 239 239 241 242 241 240 241 243 243 243 244 245 246 248 249 250 252 254 256 257 259 261
23 21 22 21 21 15 358 310 270 254 246 239 233 230 230 232 236 237 238 239 239 238 238 239 240 241 241 240 240 240 241 244 246 248 249 249 250 252 254 255 256 259 262
24 24 24 23 24 24 19 10 335 289 260 244 238 234 234 236 237 237 237 237 237 237 237 237 239 239 240 238 239 239 240 242 245 246 248 248 249 251 253 254 256 259 261
25 25 26 26 27 26 23 19 11 348 294 263 248 240 238 236 236 236 236 236 236 236 235 237 238 238 238 237 237 238 239 240 241 242 246 247 249 252 253 253 255 258 257
24 25 27 28 29 30 28 24 17 9 349 300 258 239 233 231 235 234 235 236 236 236 235 234 233 233 234 233 234 236 237 239 240 241 244 246 248 249 250 250 253 253 253
22 23 25 27 29 30 30 28 25 22 16 8 327 246 233 226 230 230 234 235 232 231 231 229 229 231 229 229 231 234 236 237 239 241 242 245 246 247 248 249 252 252 254
19 21 22 24 26 28 28 28 26 23 22 14 4 325 228 225 228 227 229 230 224 222 223 227 228 226 223 225 229 231 232 236 239 240 242 245 245 247 247 249 251 251 253